Wind_Speed
51 51 49 48 46 44 43 42 42 35 37 35 32 32 26 21 17 19 15 14 12 7 2 9 10 12 14 20 22 22 21 20 19 19 17 17 15 14 14 14 13 15 16 16
58 56 55 53 51 50 50 49 46 46 43 39 39 36 34 34 28 23 18 15 18 25 16 13 14 16 11 15 19 18 18 17 16 15 15 14 15 12 11 13 14 14 15 16
63 60 62 59 57 55 54 53 54 52 52 51 45 45 42 39 36 35 36 34 25 25 27 24 21 20 19 21 20 16 14 13 14 12 11 12 11 11 9 10 12 14 14 14
69 68 65 65 62 61 60 59 59 56 57 57 57 55 51 50 46 41 42 40 39 34 32 30 29 27 26 24 20 12 14 11 10 10 9 7 7 8 8 8 8 9 12 13
69 71 72 71 68 70 64 67 63 64 63 61 61 61 61 57 57 53 46 45 44 43 35 35 34 34 34 30 26 20 14 15 11 9 8 7 3 3 6 6 5 6 5 9
72 75 74 74 74 72 71 71 70 69 69 66 69 67 66 66 66 57 57 59 52 49 46 44 43 39 38 35 33 31 27 19 14 11 10 8 6 3 1 1 3 5 6 3
76 76 76 76 76 76 76 77 76 75 74 74 77 72 74 74 65 65 66 64 63 60 54 51 48 47 43 42 40 39 36 29 20 15 12 12 11 7 7 6 4 3 3 4
74 75 75 77 78 78 79 78 79 76 80 82 76 79 85 76 73 77 72 70 68 67 65 61 57 53 52 49 48 46 43 37 29 23 18 14 16 14 11 9 11 10 9 8
72 75 74 75 76 77 74 79 76 80 81 82 81 83 88 84 81 79 78 77 74 72 69 68 67 65 62 60 55 52 49 45 39 32 24 22 19 20 18 15 13 15 15 13
67 72 69 70 73 74 75 74 78 78 77 78 80 84 85 89 83 82 89 83 79 77 75 74 73 69 67 65 63 58 56 53 49 42 37 31 29 24 24 21 19 16 16 19
69 73 71 75 74 74 74 75 75 78 77 79 79 85 85 83 79 85 89 87 84 83 80 78 77 73 72 70 68 66 62 59 53 50 44 40 36 35 30 29 25 23 20 20
67 70 74 72 75 78 78 78 78 79 79 78 79 80 89 81 85 85 85 84 84 84 84 83 81 77 76 74 72 70 67 63 60 56 51 48 45 40 37 34 32 27 25 24
69 71 71 73 73 75 73 75 78 80 82 80 83 84 93 84 84 88 83 83 83 82 82 81 79 80 81 79 75 74 70 67 64 60 54 53 49 46 43 41 36 32 30 28
67 68 70 72 77 72 72 77 79 81 82 84 83 85 95 93 93 85 85 83 85 83 83 82 79 76 75 76 77 77 76 73 70 65 60 52 51 51 50 46 41 39 37 32
61 62 62 62 66 69 67 69 74 77 81 86 82 94 93 96 92 90 90 87 86 84 83 83 81 77 77 74 74 72 72 73 72 69 64 59 54 53 51 48 46 44 42 42
64 66 67 68 70 69 70 71 73 74 75 77 79 86 92 100 97 93 88 89 88 88 87 84 84 81 79 77 75 73 71 69 68 66 64 61 56 53 52 51 49 44 40 39
69 71 73 74 78 76 78 84 75 75 78 82 83 85 87 92 90 92 92 93 97 91 91 86 88 84 82 79 77 75 71 69 66 64 61 57 50 50 53 55 53 49 45 43
75 78 82 83 85 85 91 87 83 85 86 88 87 87 86 83 85 91 94 100 97 95 91 91 88 89 86 83 80 78 75 71 67 63 57 55 45 45 48 53 56 56 53 48
71 72 74 77 79 82 90 90 83 91 94 96 93 89 88 88 85 85 95 93 92 94 99 97 92 89 88 87 84 81 78 73 70 62 59 57 55 41 46 52 54 57 55 52
73 75 77 80 83 87 95 86 85 89 81 84 85 86 87 88 86 87 88 89 91 92 92 96 96 93 91 89 86 83 81 76 73 68 62 53 60 51 46 60 65 55 56 55
81 81 81 80 79 79 74 76 78 76 78 76 79 80 83 86 88 86 87 86 88 91 88 90 92 94 95 93 87 85 83 80 76 74 69 69 68 63 65 66 63 54 55 53
67 68 69 70 74 77 78 77 79 79 79 79 80 79 80 81 82 83 82 84 85 83 85 89 88 91 93 93 91 87 86 83 80 79 75 75 81 85 76 75 66 73 64 62
62 65 68 68 71 71 71 71 72 71 70 70 70 74 73 75 75 75 73 77 82 82 79 77 85 90 90 89 91 90 87 84 83 82 80 80 79 82 81 83 75 75 74 71
57 57 57 60 60 60 61 62 62 59 56 56 53 53 58 60 66 69 69 73 74 77 76 79 80 80 87 88 88 87 87 85 84 84 82 83 84 79 83 84 90 89 79 75
45 45 48 49 48 49 51 47 49 45 41 40 43 43 46 47 50 50 54 60 65 67 70 75 77 75 75 81 83 84 84 83 83 84 82 83 85 86 84 88 93 91 83 83
45 45 45 46 43 41 40 33 31 33 33 34 34 36 35 33 35 36 40 45 52 58 60 62 65 68 70 69 75 79 78 79 80 78 81 77 81 84 86 84 85 91 89 90
Wind_Direction
237 239 236 234 234 235 240 243 250 245 251 251 254 258 251 245 240 241 242 282 257 200 327 336 353 7 10 11 15 23 24 29 38 41 43 52 63 81 89 90 96 106 112 113
240 240 241 241 240 238 236 242 246 253 254 251 255 253 256 261 255 240 228 256 275 287 289 300 310 317 336 348 356 7 20 18 27 36 42 49 54 62 82 96 105 107 111 117
242 244 244 244 244 245 244 239 242 245 252 256 251 251 251 253 257 260 232 264 273 280 286 290 290 295 306 314 323 332 2 14 11 26 37 42 51 59 66 85 107 118 119 123
243 245 246 248 247 248 246 248 245 245 247 250 257 257 251 255 253 254 261 264 266 260 268 275 281 285 291 300 312 313 330 350 355 1 13 33 34 45 73 72 91 114 129 135
245 247 247 247 249 249 250 252 249 249 247 248 252 253 253 255 257 257 258 261 259 262 261 266 272 277 284 290 294 297 300 316 325 326 336 348 359 24 54 97 80 79 127 148
244 246 247 248 250 251 252 252 252 250 251 251 253 255 254 250 254 255 259 258 258 258 257 260 265 268 274 278 284 289 294 295 297 301 303 306 308 279 274 78 108 136 118 134
248 247 248 249 249 251 251 252 253 253 254 254 253 253 255 252 254 256 254 256 258 261 260 258 258 263 266 270 275 279 284 286 284 283 284 284 287 275 255 240 226 209 196 170
249 250 251 251 252 251 252 251 251 254 253 255 258 257 256 256 254 253 253 254 255 258 260 260 260 260 263 265 270 272 275 277 280 275 273 267 273 276 266 254 245 234 230 241
251 250 253 252 252 252 251 253 254 252 253 254 255 254 256 256 256 256 256 252 254 255 256 259 261 262 263 263 264 267 270 272 273 274 271 264 258 264 267 262 249 247 239 237
252 252 252 252 252 253 253 254 254 253 254 254 255 255 256 255 256 257 255 256 256 256 256 258 260 260 262 264 265 264 266 268 272 273 273 268 264 254 256 260 263 255 250 246
254 255 251 255 253 254 253 253 253 254 254 255 256 257 256 258 256 255 257 257 256 255 255 256 256 256 257 259 262 264 265 267 268 269 269 270 270 267 260 258 255 257 253 252
253 254 255 253 255 256 255 257 256 256 255 254 256 258 255 256 256 254 255 256 256 256 255 253 253 254 255 256 257 259 261 262 264 264 266 266 268 267 266 256 258 257 258 258
256 256 257 258 256 256 259 258 257 256 256 256 254 255 258 253 254 254 253 256 255 255 255 254 254 252 253 254 254 255 256 258 260 262 262 264 263 262 260 259 259 259 260 265
259 261 261 262 263 260 260 260 259 259 258 255 255 253 257 254 254 254 254 252 253 254 254 253 253 253 251 252 253 253 254 256 256 257 258 257 256 257 257 256 256 257 258 259
256 259 261 262 264 264 259 260 261 260 256 255 253 255 254 255 253 253 251 252 251 251 251 252 252 250 250 249 250 250 251 252 253 253 254 252 252 255 257 260 256 257 260 259
258 260 262 264 265 266 267 264 261 261 262 261 256 254 254 253 253 253 251 252 249 248 247 248 248 249 248 247 248 248 248 249 251 252 251 251 250 251 254 255 256 252 254 256
263 264 264 266 267 268 267 264 267 266 264 263 261 258 256 255 253 251 249 246 247 246 245 243 246 245 246 245 245 246 246 247 246 248 249 249 249 246 247 248 251 250 247 247
265 266 266 267 268 268 266 267 266 267 268 266 264 263 260 257 254 250 248 246 246 248 246 244 242 244 243 244 243 243 243 244 245 244 245 244 239 248 246 246 244 244 245 245
271 270 269 268 267 267 267 265 268 270 270 269 267 264 260 256 255 251 249 247 245 245 244 244 242 241 242 241 241 240 240 239 239 240 237 241 234 242 249 256 247 241 244 246
274 274 273 273 272 271 270 272 269 268 266 265 265 261 258 255 252 251 251 247 245 242 242 244 243 241 241 239 239 238 239 237 236 234 231 222 224 228 239 241 242 242 239 238
277 277 275 275 275 274 274 272 272 269 267 265 261 260 259 257 254 249 248 247 246 243 240 239 241 240 239 238 236 236 236 235 233 233 228 219 220 218 225 245 230 235 237 237
275 275 275 275 274 275 274 274 272 271 270 267 264 261 258 257 256 254 250 248 246 244 242 240 238 238 238 238 236 233 233 233 231 230 228 227 226 228 231 232 232 233 233 227
280 279 278 276 277 277 277 277 276 275 274 272 267 263 259 256 255 254 250 248 247 245 240 239 238 237 238 236 236 233 231 229 230 230 227 227 227 228 223 224 223 224 229 231
280 280 279 280 280 279 279 278 279 279 277 275 270 263 261 258 253 251 247 245 242 241 238 235 235 235 234 234 234 233 231 229 228 228 228 227 228 229 228 226 228 232 237 238
286 282 283 284 283 284 281 280 280 280 273 271 266 264 261 259 257 255 251 247 242 238 235 233 230 229 232 232 231 232 230 229 228 229 228 227 228 230 229 231 234 235 235 233
294 291 287 284 285 284 284 290 279 273 270 268 269 270 271 262 257 253 246 239 234 233 233 233 230 225 226 229 228 229 230 228 227 229 232 227 227 230 229 230 233 232 229 229
Height
10995 10998 11003 11007 11011 11014 11015 11017 11018 11022 11023 11025 11026 11026 11027 11030 11033 11031 11031 11032 11033 11034 11033 11033 11034 11034 11035 11035 11032 11030 11028 11026 11023 11022 11020 11018 11017 11016 11016 11016 11016 11016 11017 11017
10986 10989 10992 10997 11001 11005 11010 11011 11013 11013 11015 11018 11019 11021 11021 11023 11027 11029 11029 11030 11030 11029 11030 11031 11033 11033 11035 11037 11036 11033 11031 11029 11027 11025 11024 11022 11021 11020 11020 11019 11019 11019 11019 11019
10976 10982 10980 10987 10991 10994 10997 11003 11004 11007 11007 11007 11013 11013 11017 11017 11020 11022 11025 11025 11026 11025 11025 11027 11029 11030 11032 11034 11037 11035 11033 11030 11029 11027 11026 11026 11025 11023 11023 11022 11022 11021 11021 11021
10964 10967 10972 10976 10981 10983 10985 10989 10991 10997 10998 11000 11000 11001 11006 11007 11011 11015 11017 11020 11021 11022 11021 11022 11023 11025 11026 11030 11032 11034 11034 11032 11030 11029 11028 11027 11026 11026 11025 11025 11024 11024 11023 11023
10954 10953 10958 10962 10969 10967 10977 10972 10982 10982 10986 10990 10990 10992 10992 10997 10997 11003 11011 11012 11012 11013 11016 11016 11018 11018 11019 11023 11027 11030 11031 11032 11031 11030 11029 11028 11026 11026 11027 11026 11026 11025 11025 11025
10938 10939 10944 10949 10952 10957 10961 10962 10967 10970 10972 10978 10974 10978 10981 10984 10983 10999 10999 10995 11002 11004 11008 11010 11010 11013 11014 11016 11020 11023 11025 11028 11028 11028 11029 11028 11027 11026 11025 11026 11027 11027 11027 11027
10920 10924 10928 10933 10937 10941 10944 10947 10950 10955 10958 10960 10957 10968 10963 10966 10982 10982 10982 10988 10990 10992 10996 11000 11002 11003 11007 11009 11012 11015 11018 11022 11024 11025 11025 11027 11026 11026 11025 11025 11025 11026 11027 11027
10904 10908 10914 10915 10920 10925 10926 10931 10933 10943 10938 10938 10953 10944 10936 10958 10963 10959 10970 10974 10978 10980 10983 10987 10992 10995 10997 11000 11003 11006 11010 11014 11017 11020 11021 11022 11024 11024 11024 11023 11023 11024 11024 11025
10887 10892 10895 10899 10901 10904 10914 10909 10921 10918 10922 10923 10927 10926 10921 10931 10939 10944 10950 10956 10961 10966 10971 10975 10978 10983 10986 10989 10994 10995 10999 11003 11008 11011 11014 11016 11018 11020 11020 11020 11020 11021 11021 11021
10872 10870 10879 10882 10882 10886 10891 10897 10896 10900 10904 10907 10904 10905 10903 10907 10924 10928 10916 10935 10944 10950 10956 10961 10966 10971 10973 10976 10979 10985 10987 10992 10997 11003 11005 11008 11010 11012 11014 11015 11016 11016 11017 11017
10853 10852 10862 10856 10864 10866 10869 10874 10878 10880 10887 10886 10888 10878 10886 10894 10903 10899 10900 10912 10923 10929 10936 10942 10948 10954 10958 10962 10966 10969 10975 10980 10985 10990 10995 10998 11001 11005 11007 11009 11009 11010 11011 11012
10834 10834 10836 10843 10847 10843 10852 10855 10860 10859 10864 10868 10869 10866 10857 10875 10871 10877 10882 10891 10899 10906 10913 10922 10928 10935 10940 10946 10951 10955 10960 10966 10970 10977 10983 10987 10991 10995 10997 10999 11002 11004 11004 11006
10816 10817 10820 10821 10826 10827 10836 10834 10834 10837 10843 10850 10848 10848 10829 10854 10848 10852 10870 10870 10878 10884 10891 10897 10908 10916 10920 10927 10934 10938 10943 10949 10955 10962 10969 10974 10979 10983 10985 10988 10992 10996 10997 10999
10797 10798 10801 10801 10800 10812 10813 10811 10815 10815 10820 10821 10828 10821 10806 10820 10823 10842 10847 10851 10856 10864 10870 10877 10886 10894 10901 10906 10913 10920 10925 10931 10938 10946 10952 10959 10964 10968 10972 10978 10982 10984 10987 10990
10782 10782 10783 10783 10780 10781 10791 10791 10788 10791 10793 10792 10800 10791 10792 10791 10804 10811 10821 10829 10835 10843 10848 10853 10863 10873 10879 10887 10892 10901 10907 10913 10920 10927 10935 10943 10949 10955 10961 10967 10972 10974 10976 10977
10767 10766 10766 10765 10761 10763 10763 10764 10764 10765 10766 10767 10771 10771 10764 10760 10775 10789 10801 10802 10806 10814 10821 10833 10838 10848 10857 10865 10873 10880 10888 10896 10903 10912 10920 10927 10936 10943 10949 10954 10958 10963 10966 10967
10749 10748 10747 10747 10740 10744 10740 10727 10742 10743 10738 10735 10741 10737 10740 10746 10755 10760 10768 10770 10767 10785 10792 10811 10814 10825 10833 10842 10851 10860 10869 10877 10886 10894 10903 10911 10921 10927 10931 10938 10946 10950 10953 10954
10732 10728 10725 10723 10718 10719 10702 10711 10718 10713 10710 10706 10711 10711 10716 10721 10724 10727 10732 10736 10750 10761 10773 10780 10792 10799 10811 10819 10829 10839 10849 10859 10868 10878 10886 10896 10903 10908 10915 10921 10928 10933 10937 10942
10708 10704 10701 10697 10695 10690 10677 10678 10696 10686 10680 10669 10676 10683 10686 10688 10695 10701 10694 10713 10730 10736 10737 10750 10764 10775 10785 10795 10806 10817 10827 10839 10849 10859 10869 10877 10884 10887 10896 10905 10912 10917 10924 10932
10684 10679 10676 10671 10667 10661 10646 10663 10662 10645 10657 10648 10646 10645 10650 10653 10665 10669 10670 10683 10690 10703 10713 10722 10734 10748 10759 10770 10782 10795 10805 10819 10829 10840 10850 10859 10863 10873 10878 10886 10894 10897 10907 10913
10659 10655 10648 10643 10639 10629 10634 10626 10622 10622 10620 10621 10616 10617 10617 10622 10626 10639 10643 10653 10660 10670 10684 10694 10705 10717 10728 10742 10758 10771 10782 10796 10809 10820 10832 10842 10847 10855 10864 10871 10878 10879 10890 10898
10638 10632 10627 10622 10614 10606 10604 10602 10596 10593 10592 10589 10588 10590 10591 10593 10599 10607 10618 10626 10632 10644 10655 10667 10680 10687 10700 10715 10732 10745 10759 10772 10787 10797 10810 10820 10830 10838 10848 10855 10863 10867 10875 10882
10617 10610 10604 10600 10591 10585 10581 10576 10569 10567 10564 10562 10560 10559 10565 10568 10572 10578 10591 10597 10603 10615 10630 10643 10652 10663 10674 10689 10701 10719 10736 10751 10763 10774 10787 10797 10804 10814 10824 10831 10838 10845 10851 10859
10600 10592 10585 10578 10573 10568 10560 10555 10548 10545 10543 10539 10538 10538 10537 10543 10543 10550 10559 10566 10575 10585 10600 10613 10621 10635 10649 10663 10678 10695 10710 10727 10741 10752 10765 10776 10784 10793 10803 10811 10818 10822 10834 10843
10583 10577 10569 10562 10557 10549 10542 10540 10532 10527 10524 10522 10519 10521 10521 10524 10526 10533 10538 10545 10553 10563 10573 10582 10597 10615 10627 10642 10659 10673 10689 10706 10719 10731 10744 10756 10762 10771 10780 10789 10794 10804 10815 10819
10567 10559 10552 10546 10541 10535 10529 10527 10519 10514 10511 10511 10509 10509 10510 10513 10515 10519 10521 10525 10534 10543 10556 10569 10582 10600 10612 10625 10642 10655 10670 10685 10700 10711 10722 10731 10741 10749 10760 10765 10771 10781 10787 10791